Location: Middle Street
(51.7167°N, 0.0333°E)
Time: 19:34:40
(UTC+00:00)

USA 267 - Pass Details

Date: 20 January 2021
Orbit: 1102 x 1106 km, 123.0° (Epoch: 22 February)

Event Time Altitude Azimuth Distance (km) Brightness Sun altitude
Exits shadow 19:51:36 39° 181° (S) 1,586 4.0 -31.0°
Drops below altitude 10° 19:56:03 10° 213° (SSW) 2,956 5.8 -31.7°
Sets 19:58:38 0° 218° (SW) 3,912 6.5 -32.1°
